Location: Clason Point
(40.8136°N, 73.8618°W)
Time: 20:11:17
(UTC+00:00)

YAOGAN 1 - Pass Details

Date: 16 September 2019
Orbit: 619 x 621 km, 98.0° (Epoch: 19 October)

Event Time Altitude Azimuth Distance (km) Brightness Sun altitude
Rises 23:40:04 0° 176° (S) 2,882 5.8 -7.8°
Reaches altitude 10° 23:42:16 10° 181° (S) 1,981 5.1 -8.2°
Maximum altitude 23:46:30 55° 260° (W) 745 3.4 -9.0°
Drops below altitude 10° 23:50:46 10° 338° (NNW) 1,996 5.6 -9.8°
Sets 23:53:01 0° 343° (NNW) 2,906 6.4 -10.2°
